Location: �terpigny
(49.8910°N, 2.9249°E)
Time: 18:45:07
(UTC+00:00)

USA 229 DEB - Pass Details

Date: 24 October 2021
Orbit: 944 x 1268 km, 63.4° (Epoch: 25 November)

Event Time Altitude Azimuth Distance (km) Brightness Sun altitude
Rises 19:14:55 0° 226° (SW) 3,644 7.0 -25.6°
Reaches altitude 10° 19:17:25 10° 228° (SW) 2,726 6.2 -26.0°
Maximum altitude 19:23:49 77° 315° (NW) 1,055 3.6 -27.0°
Enters shadow 19:26:54 35° 36° (NE) 1,631 4.4 -27.5°
